Date String (YYYY-MM-DD hh:mm:ss) UTC,Instrument flags,Ambient pressure (hPa),Sample flow (lpm),Bypass flow (lpm),Sample temperature (°C),Ambient temperature (°C),ASC tube jacket temperature (°C),LED temperature (°C),Box temperature (°C),Sample RH (%),Span deviation,Mass concentration (μg/m³),Mass concentration (μg/m³),Mass concentration (μg/m³)
DateTimeUTC,F1_M11,P_M11,Q1_M11,Q2_M11,T1_M11,T2_M11,T3_M11,T4_M11,T5_M11,U1_M11,ZSPAN_M11,X0_M11,X2_M11,X1_M11
2022-07-26 01:00:00,,0825.4,5.00,0.00,29.3,27.4,00.0,38.0,31.1,26.5,0002.2,0015.78,0008.48,0007.52
2022-07-26 01:01:00,,0825.4,5.00,0.00,29.4,27.6,00.0,38.0,31.2,25.2,0001.7,0016.80,0008.47,0007.51
2022-07-26 01:02:00,,0825.4,4.99,0.00,29.4,27.9,00.0,38.0,31.3,25.2,0000.0,0017.13,0008.41,0007.48
2022-07-26 01:03:00,,0825.4,5.01,0.00,29.4,28.1,00.0,38.1,31.4,25.8,0000.0,0016.47,0008.35,0007.46
2022-07-26 01:04:00,,0825.3,5.00,0.00,29.5,28.2,00.0,38.1,31.5,26.2,0000.0,0016.32,0008.27,0007.43
2022-07-26 01:05:00,,0825.3,4.99,0.00,29.5,28.0,00.0,38.0,31.4,26.3,0000.0,0016.72,0008.26,0007.42
2022-07-26 01:06:00,,0825.4,5.00,0.00,29.4,27.3,00.0,38.0,31.3,26.6,0000.0,0015.97,0008.20,0007.41
2022-07-26 01:07:00,,0825.4,5.00,0.00,29.4,27.0,00.0,38.0,31.2,26.9,0000.0,0015.94,0008.22,0007.40
2022-07-26 01:08:00,,0825.4,5.00,0.00,29.3,27.0,00.0,38.0,31.1,27.3,0000.0,0015.52,0008.20,0007.39
2022-07-26 01:09:00,,0825.3,5.00,0.00,29.3,27.2,00.0,38.0,31.1,27.1,0000.0,0015.72,0008.23,0007.39
2022-07-26 01:10:00,,0825.4,5.00,0.00,29.3,27.4,00.0,38.0,31.1,26.9,0000.0,0016.42,0008.22,0007.38
2022-07-26 01:11:00,,0825.4,5.01,0.00,29.3,27.6,00.0,38.0,31.2,26.6,0000.0,0015.58,0008.16,0007.37
2022-07-26 01:12:00,,0825.4,5.01,0.00,29.4,27.9,00.0,38.0,31.3,27.0,0000.0,0014.71,0008.11,0007.35
2022-07-26 01:13:00,,0825.4,4.99,0.00,29.4,28.1,00.0,38.0,31.4,27.6,0000.0,0014.25,0008.14,0007.36
2022-07-26 01:14:00,,0825.3,5.01,0.00,29.4,28.3,00.0,38.0,31.5,27.4,0000.0,0014.39,0008.19,0007.37
2022-07-26 01:15:00,,0825.4,5.00,0.00,29.5,28.1,00.0,38.0,31.5,26.9,0000.0,0015.05,0008.25,0007.37
2022-07-26 01:16:00,,0825.3,5.00,0.00,29.4,27.4,00.0,38.0,31.3,26.6,0000.0,0015.27,0008.25,0007.37
2022-07-26 01:17:00,,0825.3,4.99,0.00,29.4,27.1,00.0,38.0,31.2,27.2,0000.0,0016.17,0008.28,0007.36
2022-07-26 01:18:00,,0825.3,5.00,0.00,29.4,27.1,00.0,38.0,31.1,28.0,0000.0,0016.05,0008.21,0007.32
2022-07-26 01:19:00,,0825.4,5.00,0.00,29.3,27.3,00.0,38.0,31.1,28.9,0000.0,0016.60,0008.14,0007.25
2022-07-26 01:20:00,,0825.3,5.00,0.00,29.3,27.4,00.0,38.0,31.1,28.7,0000.0,0016.73,0008.06,0007.18
2022-07-26 01:21:00,,0825.3,5.00,0.00,29.3,27.7,00.0,38.0,31.2,28.4,0000.0,0017.93,0007.98,0007.11
2022-07-26 01:22:00,,0825.3,5.00,0.00,29.4,27.9,00.0,38.0,31.3,28.1,0000.0,0018.11,0007.91,0007.05
2022-07-26 01:23:00,,0825.3,5.01,0.00,29.4,28.1,00.0,38.0,31.4,28.1,0000.0,0018.81,0007.87,0007.00
2022-07-26 01:24:00,,0825.3,4.99,0.00,29.4,28.3,00.0,38.1,31.5,27.9,0000.0,0018.63,0007.82,0006.93
2022-07-26 01:25:00,,0825.3,5.01,0.00,29.5,28.4,00.0,38.1,31.5,27.6,0000.0,0018.94,0007.76,0006.87
2022-07-26 01:26:00,,0825.3,5.00,0.00,29.5,27.9,00.0,38.1,31.5,27.5,0000.0,0018.90,0007.67,0006.81
2022-07-26 01:27:00,,0825.3,4.99,0.00,29.5,27.3,00.0,38.0,31.3,27.6,0000.0,0018.71,0007.59,0006.76
2022-07-26 01:28:00,,0825.3,5.01,0.00,29.4,27.2,00.0,38.0,31.2,27.0,0000.0,0017.81,0007.57,0006.70
2022-07-26 01:29:00,,0825.3,5.00,0.00,29.4,27.2,00.0,38.0,31.1,27.3,0000.0,0018.33,0007.59,0006.68
2022-07-26 01:30:00,,0825.3,5.00,0.00,29.3,27.4,00.0,38.0,31.1,26.5,0000.0,0017.97,0007.63,0006.69
2022-07-26 01:31:00,,0825.3,5.00,0.00,29.4,27.6,00.0,38.0,31.2,26.8,0000.0,0019.24,0007.65,0006.70
2022-07-26 01:32:00,,0825.3,5.01,0.00,29.4,27.8,00.0,38.0,31.3,26.7,0000.0,0017.75,0007.71,0006.71
2022-07-26 01:33:00,,0825.3,5.00,0.00,29.4,28.0,00.0,38.1,31.4,26.5,0000.0,0017.25,0007.75,0006.71
2022-07-26 01:34:00,,0825.3,4.99,0.00,29.4,28.2,00.0,38.1,31.4,26.4,0000.0,0016.56,0007.77,0006.71
2022-07-26 01:35:00,,0825.3,5.01,0.00,29.5,28.3,00.0,38.1,31.5,26.8,0000.0,0016.69,0007.78,0006.72
2022-07-26 01:36:00,,0825.2,5.00,0.00,29.5,28.0,00.0,38.1,31.5,26.4,0000.0,0016.32,0007.79,0006.73
2022-07-26 01:37:00,,0825.2,5.00,0.00,29.4,27.4,00.0,38.0,31.3,26.3,0000.0,0016.45,0007.79,0006.74
2022-07-26 01:38:00,,0825.2,5.00,0.00,29.4,27.1,00.0,38.0,31.2,26.9,0000.0,0016.66,0007.82,0006.76
2022-07-26 01:39:00,,0825.2,5.01,0.00,29.4,27.2,00.0,38.0,31.1,26.7,0000.0,0016.86,0007.80,0006.77
2022-07-26 01:40:00,,0825.2,5.00,0.00,29.3,27.3,00.0,38.0,31.1,26.3,0000.0,0016.81,0007.77,0006.78
2022-07-26 01:41:00,,0825.2,5.00,0.00,29.3,27.5,00.0,38.0,31.2,26.6,0000.0,0016.58,0007.75,0006.78
2022-07-26 01:42:00,,0825.2,5.00,0.00,29.3,27.7,00.0,38.0,31.2,26.2,0000.0,0014.90,0007.76,0006.81
2022-07-26 01:43:00,,0825.1,5.00,0.00,29.4,27.9,00.0,38.0,31.3,25.8,0000.0,0014.69,0007.74,0006.82
2022-07-26 01:44:00,,0825.2,5.00,0.00,29.4,28.1,00.0,38.1,31.4,25.5,0000.0,0015.01,0007.76,0006.84
2022-07-26 01:45:00,,0825.2,4.99,0.00,29.5,28.3,00.0,38.1,31.5,25.4,0000.0,0015.56,0007.80,0006.87
2022-07-26 01:46:00,,0825.2,5.00,0.00,29.5,28.3,00.0,38.1,31.5,25.5,0000.0,0015.61,0007.83,0006.90
2022-07-26 01:47:00,,0825.1,5.00,0.00,29.5,27.8,00.0,38.1,31.4,25.2,0000.0,0016.66,0007.85,0006.94
2022-07-26 01:48:00,,0825.1,5.00,0.00,29.4,27.3,00.0,38.0,31.3,25.5,0000.0,0016.22,0007.92,0006.95
2022-07-26 01:49:00,,0825.2,5.01,0.00,29.4,27.1,00.0,38.0,31.2,25.5,0000.0,0015.51,0007.97,0006.98
2022-07-26 01:50:00,,0825.2,5.00,0.00,29.3,27.2,00.0,38.0,31.1,25.7,0000.0,0015.72,0008.02,0007.05
2022-07-26 01:51:00,,0825.3,4.99,0.00,29.3,27.4,00.0,38.0,31.1,26.6,0000.0,0015.88,0008.10,0007.12
2022-07-26 01:52:00,,0825.3,5.00,0.00,29.3,27.6,00.0,38.0,31.2,30.2,0000.0,0016.01,0008.14,0007.15
2022-07-26 01:53:00,,0825.2,5.00,0.00,29.4,27.8,00.0,38.0,31.3,34.5,0000.0,0015.91,0008.05,0007.09
2022-07-26 01:54:00,,0825.1,5.00,0.00,29.5,28.0,00.0,38.1,31.4,35.8,0000.0,0015.80,0007.96,0007.00
2022-07-26 01:55:00,,0825.2,5.00,0.00,29.8,28.1,00.0,38.1,31.6,36.1,0000.0,0015.53,0007.79,0006.88
2022-07-26 01:56:00,,0825.2,5.00,0.00,30.2,28.3,00.0,38.1,31.9,35.7,0000.0,0014.79,0007.59,0006.74
2022-07-26 01:57:00,,0825.1,5.00,0.00,30.7,28.2,00.0,38.2,32.0,35.3,0000.0,0014.93,0007.38,0006.57
2022-07-26 01:58:00,,0825.2,5.01,0.00,31.1,27.5,00.0,38.2,32.0,34.7,0000.0,0013.80,0007.18,0006.37
2022-07-26 01:59:00,,0825.2,5.00,0.00,31.3,27.2,00.0,38.2,31.9,34.6,0000.0,0013.76,0006.92,0006.19
